Regional Weather Roundup
Issued by NWS

Home | Current Version | Previous Version | Text Only | Print | Product List | Glossary Off
Versions: 1 2 3 4 5 6 7 8 9 10 11 12 13 14 15 16 17 18 19 20 21 22 23 24 25 26 27 28 29 30 31 32 33 34 35 36 37 38 39 40 41 42 43 44 45 46 47 48 49 50

000
ASUS43 KOAX 300910
RWRNE

WEATHER ROUNDUP FOR NEBRASKA
NATIONAL WEATHER SERVICE OMAHA NE
400 AM CDT TUE SEP 30 2014

NOTES: SATELLITE DATA IS BEING USED TO AUGMENT CLOUD COVER ABOVE
       12000 FEET.
       "FAIR" INDICATES FEW OR NO CLOUDS BELOW 12,000 FEET WITH NO
       SIGNIFICANT WEATHER AND/OR OBSTRUCTIONS TO VISIBILITY.

  * THESE STATIONS DO NOT REPORT WEATHER SUCH AS RAIN...SNOW OR FOG.

NEZ001>004-019>022-054>056-301000-
NEBRASKA PANHANDLE

CITY           SKY/WX    TMP DP  RH WIND       PRES   REMARKS
SCOTTSBLUFF    LGT RAIN  50  48  93 W16G29    29.68F
CHADRON        RAIN      53  53 100 W5        29.47F FOG
KIMBALL        DRIZZLE   48  46  95 W10G16    29.73S
SIDNEY         CLOUDY    50  45  83 W14G24    29.75F
$$

NEZ057>060-069>072-079>082-301000-
SOUTHWEST NEBRASKA

CITY           SKY/WX    TMP DP  RH WIND       PRES   REMARKS
NORTH PLATTE   MOCLDY    59  56  89 S10       29.74F
IMPERIAL       PTCLDY    53  48  83 SW12      29.80R
LEXINGTON      LGT RAIN  64  58  82 SE13      29.77F
MCCOOK         PTCLDY    60  56  86 SW17G25   29.79R
OGALLALA       PTCLDY    53  50  90 W9        29.74R
$$

NEZ005>010-023>029-035>040-094-301000-
NORTH CENTRAL NEBRASKA

CITY           SKY/WX    TMP DP  RH WIND       PRES   REMARKS
VALENTINE      CLOUDY    61  57  87 SE17G25   29.68F
AINSWORTH      LGT RAIN  62  57  86 SE15G21   29.71F
BROKEN BOW     CLOUDY    66  56  70 S16G25    29.75F
O`NEILL        CLOUDY    64  59  83 SE18      29.79F
ORD            CLOUDY    68  56  65 SE16G25   29.76F
THEDFORD       MOCLDY    61  57  87 S21G26    29.72F
$$

NEZ041-046>049-061>064-073>077-083>087-301000-
SOUTH CENTRAL NEBRASKA

CITY           SKY/WX    TMP DP  RH WIND       PRES   REMARKS
GRAND ISLAND   CLOUDY    67  57  70 SE16G23   29.82F
AURORA         CLOUDY    65  58  76 SE12G17   29.84F
HASTINGS       LGT RAIN  67  57  70 S12G20    29.83F
HEBRON         CLOUDY    68  57  67 S10       29.87F
HOLDREGE       CLOUDY    67  55  64 S17G23    29.79F
KEARNEY *      CLOUDY    66  55  68 SE18      29.80F
YORK           MOCLDY    64  59  82 S10       29.86F
$$

NEZ011>018-030>034-042>045-301000-
NORTHEAST NEBRASKA

CITY           SKY/WX    TMP DP  RH WIND       PRES   REMARKS
NORFOLK        CLOUDY    62  59  90 E13       29.84F
ALBION         MOCLDY    62  56  80 SE6       29.83F
BLAIR          MOCLDY    62  60  92 E8        29.91F FOG
COLUMBUS *     PTCLDY    63  55  77 E9        29.86F
FREMONT        MOCLDY    64  60  87 E7        29.89F
TEKAMAH        MOCLDY    58  57  97 CALM      29.91F FOG
WAYNE          CLOUDY    61  59  94 SE13G18   29.88F FOG
$$

NEZ050>053-065>068-078-088>093-301000-
SOUTHEAST NEBRASKA

CITY           SKY/WX    TMP DP  RH WIND       PRES   REMARKS
LINCOLN        PTCLDY    67  58  72 SE8       29.87F
OMAHA EPPLEY   PTCLDY    64  59  83 SE7       29.91F
BEATRICE       MOCLDY    66  59  79 SE7       29.89F
FALLS CITY     PTCLDY    61  58  90 SE6       29.90F
NEBRASKA CITY  PTCLDY    62  55  79 SE6       29.90F
PLATTSMOUTH    PTCLDY    59  54  83 E5        29.91F
$$

NEZ044-045-051>053-067-301000-
OMAHA AREA

CITY           SKY/WX    TMP DP  RH WIND       PRES   REMARKS
OMAHA EPPLEY   PTCLDY    64  59  83 SE7       29.91F
BLAIR          MOCLDY    62  60  92 E8        29.91F FOG
FREMONT        MOCLDY    64  60  87 E7        29.89F
MILLARD        MOCLDY    65  60  84 E3        29.90F
OFFUTT AFB     CLEAR     62  62 100 E8        29.90F
PLATTSMOUTH    PTCLDY    59  54  83 E5        29.91F
WAHOO          PTSUNNY   61  56  83 E6        29.88F
$$



USA.gov is the U.S. government's official web portal to all federal, state and local government web resources and services.